ATLAS 5 CENTAUR R/B, 40947

Orbit data source: Space-Track

ATLAS 5 CENTAUR R/B, 40947 is space debris in HEO originally from a launch on Fri, 02 Oct 2015 UTC launched from the Air Force Eastern Test Range (AFETR). Debris objects in space refer to the collection of defunct objects orbiting the Earth. Examples of debris include non-operational satellites, rocket bodies, and fragments generated from explosions, collisions, or faulty payload assembly.

Loading next visibility...
ATLAS 5 CENTAUR R/B details
Identifier
40947, 2015-056B
Orbit
HEO
Last TLE update7 hours ago
Origin
Flag of USULA (US)
ManufacturerULA Decatur
MissionSpacecraft
Bus & MotorCENTAUR SEC, RL10C-1
Mass~2,020 kg wet, 2,020 kg dry
Launch date (UTC)
2015-10-02 (9 years ago)
Launch vehicleUnknown
Launch site
Air Force Eastern Test Range (AFETR)
Object type
Payload
Rocket body
Debris
Shape & HBRCyl + 1 Nozzle, 11.7 m
Radar Cross Section32.260 m², Large (>1 m²)

Expand to show TLE details & history

TLE from 7 hours ago
0 ATLAS 5 CENTAUR R/B
1 40947U 15056B   24346.59236660 -.00000221  00000-0  00000-0 0  9993
2 40947  25.4366 172.6008 5883399 331.5408   6.1428  2.04877853 68824
Epoch: 2024-12-11T14:13Z
Definitive object data (Epoch: 2024-12-11T14:13:00.474Z)
Latitude0.00008°
Longitude-121.38046°
Altitude4,928.299 km
Speed7.435 km/s
True Right ascension11h 30m 37s
True Declination0° 00' 00"
Sunlit
Object was in daylight at TLE epoch
Visualization TLE readout
Latitude4.23179°
Longitude49.60928°
Altitude32,327.994 km
Speed2.318 km/s
Apparent Right ascension23h 16m 16s
Apparent Declination-1° 59' 02"
Sunlit
Object is in daylight
Visualization observer readout
Local Sidereal Time20:03:49
Azimuth121.434° SE
Elevation29.314°
Doppler factor1
Orbital elements
Apogee altitude35,218.067 km
Perigee altitude4,402.614 km
Semi-major axis26,188.478 km
Eccentricity0.5883399
Inclination25.4366°
RAAN172.6008°
Arg. of periapsis331.5408°
True anomaly28.42204°
Mean anomaly6.1428°
Eccentric anomaly14.69263°
Mean motion0.51213 °/min
BSTARUnknown
Orbital period702.95 mins
Loading maneuver chart data...
Loading historical data...
Loading historical data...
Loading historical data...
Loading historical data...
Loading historical data...
Loading historical data...
Loading historical data...
Other satellites on launch #56 in the year 2015 (2015-10-02 UTC)

ATLAS 5 CENTAUR R/B Visibility forecast

Observer location: undefined°, undefined

Span
Click to sort rows by Start time (UTC) header in descending order
Start Az.
Max El. time (UTC)
Max El. Az.
Max El.
End time (UTC)
End Az.
141 mins2024-12-11 21:39:56.271Z121.451° SE2024-12-11 21:39:56.271Z121.451° SE26.079°2024-12-12 00:00:56.271Z133.107° SE
483 mins2024-12-12 13:36:56.271Z197.396° SSW2024-12-12 14:00:56.271Z132.568° SE31.609°2024-12-12 21:39:56.271Z119.066° SE
|